Find Starlink 30992

NORAD ID: 58524 Int'l Des: 2023-191 Owner: SPXS Country: US Constellation: starlink operational
LEOCIRCULAR

Live Position

Loading 3D Globe...

About Starlink 30992

Description loading...

Upcoming Passes

Passes for default location (London). Set your location on the main map for personalized predictions.

Altitude History

Loading altitude history...

Two-Line Element Set

1 58524U 23191S 26122.10969463 .00002098 00000-0 85754-4 0 9993
2 58524 43.0007 161.5343 0001264 260.2627 99.8082 15.27578180133648
Epoch: May 2, 2026 • Age: 11 hours

Current Status

Altitude 486.0 km
Velocity 7.63 km/s
Sub-Earth Point 38.38°N, 147.51°E
Launch Date Dec 7, 2023
Age 2.4 years
Type internet

Technical Details

Classification Payload
Mass 730.00 kg
Dry Mass 700.00 kg
Total Mass 730.00 kg
Length 0.30 m
Diameter 4.10 m
Span 29.00 m
Shape Box + pan
Manufacturer SPXS
Bus Type Starlink V2M
Phase Status In Orbit
Owner/State SPXS/US

Most Searched